CO3D 1

Last updated on Sat Oct 25 2025 00:02:33 GMT+0000 (Coordinated Universal Time)

1 64903U 25156E 25297.70649058 .00007863 00000+0 36591-3 0 9995 2 64903 97.4347 14.6766 0000916 239.2925 120.8220 15.20205428 13756
UTC large
Height (km)
Speed (km/s)
/
Latitude / Longitude
Inclination (degrees)
Orbital Period (minutes)
Azimuth
Elevation
Range (km)
Doppler Factor

Next 0 passes for location: London (51.5072 / 0.1276)

Sorry there are no passes over London.